This is the latest recevied weather packets stored in our database for station/object KD4WXI. If no packets are shown the sender has not sent any weather packets the latest 10 day(s).
| Time | Temp. | Humidity | Pressure | Rain* | Wind** | Luminosity | Snow |
|---|---|---|---|---|---|---|---|
| 1777984399 | 17.78° C | 72% | 1017 hPa | 0 mm | - | 45 W/m² | - |
| 1777984095 | 17.22° C | 72% | 1017.1 hPa | 0 mm | - | 69 W/m² | - |
| 1777983792 | 16.67° C | 73% | 1016.9 hPa | 0 mm | - | 168 W/m² | - |
| 1777983488 | 16.67° C | 74% | 1016.8 hPa | 0 mm | - | 91 W/m² | - |
| 1777983186 | 16.67° C | 73% | 1016.7 hPa | 0 mm | - | 57 W/m² | - |
| 1777982882 | 16.11° C | 75% | 1016.9 hPa | 0 mm | - | 36 W/m² | - |
| 1777982578 | 16.11° C | 76% | 1016.9 hPa | 0 mm | - | 34 W/m² | - |
| 1777982276 | 15.56° C | 76% | 1016.9 hPa | 0 mm | - | 100 W/m² | - |
| 1777981974 | 15° C | 76% | 1016.7 hPa | 0 mm | - | 94 W/m² | - |
| 1777981671 | 14.44° C | 80% | 1016.8 hPa | 0 mm | - | 69 W/m² | - |
| 1777981367 | 13.89° C | 81% | 1016.9 hPa | 0 mm | - | 59 W/m² | - |
| 1777981064 | 13.33° C | 83% | 1016.8 hPa | 0 mm | - | 51 W/m² | - |
| 1777980761 | 12.78° C | 86% | 1016.9 hPa | 0 mm | - | 29 W/m² | - |
| 1777980457 | 12.22° C | 86% | 1016.8 hPa | 0 mm | - | 29 W/m² | - |
| 1777980155 | 11.67° C | 87% | 1016.5 hPa | 0 mm | - | 29 W/m² | - |
| 1777979855 | 11.67° C | 88% | 1016.7 hPa | 0 mm | - | 20 W/m² | - |
| 1777979551 | 11.11° C | 89% | 1016.6 hPa | 0 mm | - | 17 W/m² | - |
| 1777979247 | 11.11° C | 89% | 1016.4 hPa | 0 mm | - | 14 W/m² | - |
| 1777978945 | 11.11° C | 89% | 1016.5 hPa | 0 mm | - | 13 W/m² | - |
| 1777978641 | 11.11° C | 90% | 1016.5 hPa | 0 mm | - | 11 W/m² | - |
| 1777978336 | 10.56° C | 90% | 1016.5 hPa | 0 mm | - | 9 W/m² | - |
| 1777978033 | 10.56° C | 92% | 1016.6 hPa | 0 mm | - | 7 W/m² | - |
| 1777977731 | 10.56° C | 92% | 1016.4 hPa | 0 mm | - | 6 W/m² | - |
| 1777977427 | 10° C | 92% | 1016.5 hPa | 0 mm | - | 4 W/m² | - |
| 1777977125 | 10.56° C | 91% | 1016.4 hPa | 0 mm | - | 3 W/m² | - |
* Rain latest hour (hover to see other rain measurements)
** Current wind speed in m/s (hover to see current wind gust speed)